Flag for Czech Republic Weather past 2 weeks in Ostrava, Czech Republic

Now
49 °F

Fog.


Feels Like: N/A
Forecast: 55 / 71 °F
Wind: N/A

Location: Ostrava / Mosnov

Current Time: Sep 19, 2014 at 8:24:33 AM

Latest Report: Sep 19, 2014 at 7:00 AM


Visibility: 6 mi

Pressure: 30.09 "Hg

Humidity: 97%

Dew point: 48 °F

Location of OstravaLocation

Historic Weather in Ostrava — Graph

°F

Ostrava temperature yesterday

Maximum temperature yesterday: 70 °F (at 3:00 PM)
Minimum temperature yesterday: 51 °F (at 5:00 AM)
Average temperature yesterday: 61 °F

Past Weeks' High & Low Weather Summary

 TemperatureHumidityPressure
High78 °F (Sep 8, 2:00 PM)100% (Sep 12, 9:00 PM)30.16 "Hg (Sep 12, 9:00 PM)
Low48 °F (Sep 17, 7:00 AM)45% (Sep 8, 4:00 PM)29.85 "Hg (Sep 12, 5:00 AM)
Average62 °F85%30.03 "Hg
* Reported Sep 4 7:00 AM — Sep 19 7:00 AM, Ostrava, Weather by CustomWeather, © 2014

Note: Actual official high and low records may vary slightly from our data, if they occured in-between our weather recording intervals... More about our weather records

Advertising

Ostrava weather history for previous 24 hours

 ConditionsComfort  
Time TempWeatherWind HumidityBarometerVisibility
7:00 AM
Sep 19
49 °FFog.N/A97%30.09 "Hg6 mi
6:00 AM51 °FPassing clouds.N/A97%30.08 "Hg9 mi
5:00 AM50 °FPassing clouds.N/A96%30.09 "Hg9 mi
4:00 AM51 °FPassing clouds.N/A89%30.09 "Hg12 mi
3:00 AM52 °FPassing clouds.1 mph94%30.09 "Hg12 mi
2:00 AM53 °FPassing clouds.N/A96%30.10 "Hg12 mi
1:00 AM52 °FPassing clouds.N/A95%30.11 "Hg12 mi
12:00 AM53 °FPassing clouds.N/A93%30.11 "Hg12 mi
11:00 PM
Sep 18
55 °FPassing clouds.N/A84%30.10 "Hg16 mi
10:00 PM58 °FPassing clouds.N/A76%30.11 "Hg16 mi
9:00 PM62 °FPassing clouds.N/A65%30.10 "Hg19 mi
8:00 PM63 °FPassing clouds.2 mph64%30.10 "Hg19 mi
5:00 PM69 °FPartly sunny.3 mph49%30.08 "Hg19 mi
4:00 PM68 °FScattered clouds.6 mph48%30.08 "Hg19 mi
3:00 PM70 °FScattered clouds.5 mph50%30.08 "Hg19 mi
2:00 PM69 °FScattered clouds.6 mph51%30.09 "Hg19 mi
1:00 PM69 °FScattered clouds.5 mph50%30.09 "Hg19 mi
12:00 PM69 °FScattered clouds.5 mph54%30.10 "Hg16 mi
11:00 AM66 °FScattered clouds.3 mph67%30.11 "Hg12 mi
10:00 AM63 °FPassing clouds.1 mph72%30.12 "Hg9 mi
9:00 AM59 °FPassing clouds.N/A79%30.12 "Hg9 mi
8:00 AM57 °FPassing clouds.No wind93%30.12 "Hg7 mi
Weather by CustomWeather, © 2014

See weather overviewHow to use our weather pages